Regional Weather Roundup
Issued by NWS

Home | Current Version | Previous Version | Text Only | Print | Product List | Glossary Off
Versions: 1 2 3 4 5 6 7 8 9 10 11 12 13 14 15 16 17 18 19 20 21 22 23 24 25 26 27 28 29 30 31 32 33 34 35 36 37 38 39 40 41 42 43 44 45 46 47 48 49 50

000
ASUS45 KPSR 232100
RWRAZ

PRELIMINARY ARIZONA REGIONAL HOURLY WEATHER ROUNDUP
NATIONAL WEATHER SERVICE PHOENIX AZ
200 PM MST WED APR 23 2014

NOTE: FAIR INDICATES FEW OR NO CLOUDS BELOW 12,000 FEET WITH NO
SIGNIFICANT WEATHER AND/OR OBSTRUCTIONS TO VISIBILITY.

AZZ001>003-036-232200-
NORTHWEST ARIZONA

CITY           SKY/WX    TMP DP  RH WIND       PRES   REMARKS
KINGMAN        SUNNY     71   6   8 N17       29.95S
$$

AZZ004>008-015-016-018-232200-
NORTH CENTRAL ARIZONA

CITY           SKY/WX    TMP DP  RH WIND       PRES   REMARKS
GRAND CANYON   SUNNY     57   9  14 W10G23    30.00R
WILLIAMS       SUNNY     59   5  11 W14G24    30.06S
PRESCOTT       SUNNY     69   6   8 N13       29.94R
FLAGSTAFF      MOSUNNY   58   7  13 NW9G23    29.98S
PAYSON         SUNNY     66  10  11 W10G20    29.96S
PAGE           MOSUNNY   65  15  14 N10       29.91S
$$

AZZ009>014-017-232200-
NORTHEAST ARIZONA

CITY           SKY/WX    TMP DP  RH WIND       PRES   REMARKS
WINSLOW        NOT AVBL
SAINT JOHNS    CLOUDY    69  12  11 W23G32    29.87R
WINDOW ROCK    CLOUDY    63   4   9 W15G25    29.92R
SHOW LOW       PTSUNNY   63  14  15 W20G28    29.96S
$$

AZZ023-232200-
GREATER PHOENIX AREA

CITY           SKY/WX    TMP DP  RH WIND       PRES   REMARKS
PHOENIX        MOSUNNY   84  18   8 W13G24    29.81S
GLENDALE       MOSUNNY   82  10   6 S10G18    29.83S
DEER VALLEY    SUNNY     80  10   7 W10G25    29.82F
SCOTTSDALE     SUNNY     80  17   9 SW9G21    29.85S
MESA-GATEWAY   MOSUNNY   84  18   8 MISG      29.84S
CHANDLER       MOSUNNY   84  14   7 W14G20    29.83R
$$

AZZ027-028-232200-
SOUTHWEST MARICOPA COUNTY AND PINAL COUNTY

CITY           SKY/WX    TMP DP  RH WIND       PRES   REMARKS
CASA GRANDE    SUNNY     82  25  12 W14G22    29.84S
GILA BEND      PTCLDY    82  19   9 NW10G20   29.84F
$$

AZZ503-504-507>509-232200-
SOUTHEAST ARIZONA

CITY           SKY/WX    TMP DP  RH WIND       PRES   REMARKS
TUCSON         SUNNY     86  16   7 W17G28    29.86R
DAVIS-MONTHAN  SUNNY     83  20   9 NW21G26   29.84F
RYAN FIELD       N/A     84  19   9 W20G29    29.86R
NOGALES        SUNNY     80  24  12 SW15G25   29.92S
SIERRA VISTA   MOSUNNY   79  19  11 SW18G25   29.93S
SAFFORD        SUNNY     85  22  10 W24G37    29.78F
$$

AZZ020-021-025-026-031-232200-
SOUTHWEST ARIZONA

CITY           SKY/WX    TMP DP  RH WIND       PRES   REMARKS
YUMA           PTSUNNY   86  12   6 VRB6      29.83F
$$

CAZ031-033-041-043-047-048-061-232200-
SOUTHERN CALIFORNIA

CITY           SKY/WX    TMP DP  RH WIND       PRES   REMARKS
DOWNTOWN L.A.  SUNNY     69  47  45 VRB6      29.94F
L.A. AIRPORT   PTSUNNY   67  50  54 W16       29.96F
SAN DIEGO      PTSUNNY   67  52  58 SW10      29.97S
BURBANK        SUNNY     70  41  34 SE8       29.93S
ONTARIO        PTSUNNY   74  43  32 W12       29.92F
RIVERSIDE      PTSUNNY   74  41  30 W8        29.92F
PALM SPRINGS   MOSUNNY   84  14   7 N7        29.88F
EL CENTRO NAS  PTSUNNY   84  20   9 N15       29.84F
IMPERIAL       MOSUNNY   83  21  10 N10       29.83F
BLYTHE         SUNNY     85  12   6 N8        29.84F
$$

NVZ020-UTZ003-232200-
SOUTHERN NEVADA-UTAH

CITY           SKY/WX    TMP DP  RH WIND       PRES   REMARKS
LAS VEGAS      NOT AVBL
SALT LAKE CITY MOSUNNY   51  21  30 N7        30.05S
$$

NMZ009-TXZ055-232200-
NEW MEXICO-WEST TEXAS

CITY           SKY/WX    TMP DP  RH WIND       PRES   REMARKS
ALBUQUERQUE    PTSUNNY   75  14  10 W21G26    29.77F
EL PASO        MOSUNNY   85  18   8 SW29G35   29.80F
$$


........................KEY........................
SKY/WX - SKY CONDITION/WEATHER
TMP    - TEMPERATURE IN FAHRENHEIT
DP     - DEW POINT IN FAHRENHEIT
RH     - RELATIVE HUMIDITY IN PERCENT
WIND   - DIRECTION AND SPEED IN MILES PER HOUR (MPH)
VRB    - VARIABLE WIND DIRECTION
PRES   - MEAN SEA LEVEL PRESSURE IN INCHES OF MERCURY
         F - FALLING PRESSURE   R - RISING PRESSURE
         S - STEADY PRESSURE
VSB    - VISIBILITY IN MILES
HX     - HEAT INDEX IN FAHRENHEIT
WCI    - WIND CHILL INDEX IN FAHRENHEIT
TC     - TEMPERATURE IN CELSIUS WHICH IS ALSO KNOWN AS
         TEMPERATURE IN CENTIGRADE
AFB    - AIR FORCE BASE
         LUKE AFB IS LUKE AIR FORCE BASE
         DAVIS-MONTHAN IS DAVIS-MONTHAN AIR FORCE BASE
NAS    - NAVAL AIR STATION
         EL CENTRO NAS IS EL CENTRO NAVAL AIR STATION
N/A    - NOT AVAILABLE



USA.gov is the U.S. government's official web portal to all federal, state and local government web resources and services.